Location: LDNL
(36.4545°S, 141.6685°E)
Time: 10:45:31
(UTC+10:00)

Tiros 1 despin weight - Pass Details

Date: 16 August 2022
Orbit: 590 x 639 km, 48.2° (Epoch: 23 September)

Event Time Altitude Azimuth Distance (km) Brightness Sun altitude
Rises 21:21:49 0° 335° (NNW) 2,847 - -40.8°
Reaches altitude 10° 21:24:18 10° 346° (NNW) 1,959 - -41.3°
Maximum altitude 21:28:12 29° 46° (NE) 1,137 - -42.0°
Drops below altitude 10° 21:32:11 10° 106° (ESE) 2,006 - -42.8°
Sets 21:34:45 0° 116° (ESE) 2,928 - -43.3°
